Location: Holcomb Observatory
(44.4922°N, 73.1654°W)
Time: 22:52:46
(UTC-04:00)

Daily predictions for brighter satellites

Satellite Brightness Start Highest point End
(mag) Time Altitude Azimuth Time Altitude Azimuth Time Altitude Azimuth
Meteor 1-29 3.0 20:57:29 10° NNE 21:00:50 57° E 21:04:08 10° S
Okean 1-7 Rocket 3.9 20:58:01 10° SSE 21:02:18 48° E 21:06:40 10° NNE
ARGOS 4.2 20:59:02 10° SE 21:03:43 31° ENE 21:08:25 10° N
Cosmos 405 Rocket 3.1 21:00:54 10° SSW 21:04:39 67° WNW 21:08:31 10° N
Cosmos 1238 Rocket 4.2 20:58:14 10° S 21:04:52 63° E 21:11:07 10° NNE
OAO 2 Rocket 4.4 21:01:55 10° WSW 21:06:00 26° S 21:10:08 10° SE
Aureole 3 Rocket 3.4 21:00:19 10° S 21:06:17 87° E 21:10:31 10° N
SJ-11-01 4.4 21:02:59 10° S 21:07:40 80° WSW 21:12:25 10° NNW
ISS -3.8 21:04:56 10° WSW 21:08:14 88° NNW 21:11:33 10° ENE
Cosmos 1606 Rocket 4.3 21:05:04 10° N 21:09:05 36° ENE 21:13:04 10° SE
Aureole 1 Rocket 2.1 21:06:01 10° SSW 21:09:11 87° WNW 21:12:11 10° NNE
Cosmos 1441 Rocket 3.1 21:08:26 10° S 21:12:10 78° E 21:15:55 10° NNE
ASTEX 1 3.4 21:09:50 10° SSE 21:14:41 68° E 21:19:33 10° N
Intercosmos 24 3.8 21:12:11 10° N 21:16:00 56° E 21:19:28 10° SSE
Meteor 1-23 Rocket 4.2 21:11:17 10° S 21:16:48 67° E 21:22:23 10° NNE
Cosmos 1726 Rocket 4.2 21:14:23 10° N 21:18:26 38° ENE 21:22:18 11° SE
Cosmos 1025 Rocket 3.0 21:14:30 10° S 21:18:42 64° E 21:22:56 10° NNE
USA 186 4.4 21:17:30 10° SW 21:19:49 19° W 21:22:05 10° NW
Cosmos 2112 Rocket 4.3 21:14:47 10° SSW 21:19:59 74° WNW 21:25:12 10° NNE
Lacrosse 5 rocket 4.2 21:17:32 10° NW 21:20:37 17° N 21:23:44 10° NE
MetOp-B 4.5 21:16:11 10° SE 21:21:22 53° ENE 21:26:34 10° N
Okean 2 3.5 21:20:46 10° S 21:24:45 56° E 21:28:46 10° NNE
Cosmos 1624 Rocket 4.1 21:19:55 10° NNW 21:25:14 78° ENE 21:30:27 10° SSE
USA 245 3.7 21:26:05 14° ESE 21:27:23 20° ENE 21:29:13 10° NNE
Cosmos 2278 3.9 21:25:41 10° NNW 21:31:21 61° ENE 21:36:16 14° SE
Cosmos 2082 Rocket 3.0 21:27:03 10° SSE 21:31:54 30° ESE 21:36:44 10° NE
COSMOS 2406 4.3 21:26:54 10° SW 21:32:25 49° WNW 21:37:58 10° NNE
H-2A R/B 3.0 21:28:36 12° SE 21:32:33 33° ENE 21:37:03 10° N
SL-27 R/B 3.8 21:29:36 10° SW 21:33:07 45° WNW 21:36:39 10° N
Cosmos 2058 Rocket 3.6 21:31:22 10° N 21:35:36 43° ENE 21:39:01 15° SE
Meteor 1-15 Rocket 4.2 21:31:04 10° N 21:36:41 87° W 21:42:15 10° S
MOS 1-B Rocket 4.1 21:32:34 10° SSE 21:38:23 77° ENE 21:45:03 10° NNW
Cosmos 2181 Rocket 4.3 21:32:26 10° SSE 21:38:33 52° E 21:44:36 10° NNE
YAOGAN 11 4.2 21:38:19 14° SSE 21:41:57 64° ENE 21:46:16 10° N
Cosmos 2056 Rocket 3.6 21:39:32 10° NNW 21:44:43 78° WSW 21:49:17 13° SSE
YAOGAN 6 3.8 21:44:03 10° SSW 21:47:19 37° W 21:50:38 10° NNW
Meteor 1-4 Rocket 3.8 21:44:22 10° NNE 21:47:29 27° ENE 21:49:11 18° ESE
Cosmos 1697 Rocket 3.3 21:44:05 10° NNW 21:49:28 44° ENE 21:53:32 17° SE
Cosmos 2369 3.7 21:45:48 10° NNW 21:51:35 85° ENE 21:56:03 17° SSE
Cosmos 839 Rocket 4.4 21:46:17 10° NW 21:52:49 85° WSW 21:59:18 16° SSE
Cosmos 1656 3.8 21:47:24 10° NNW 21:52:50 63° ENE 21:56:49 19° SE
SL-16 R/B 4.4 21:53:31 10° N 21:56:40 15° NE 21:59:49 10° ENE
H-2A R/B 3.5 21:54:53 16° ESE 21:57:29 27° ENE 22:01:15 10° N
Landsat 7 4.5 21:56:47 19° SE 21:59:46 42° ENE 22:04:15 10° N
NOSS 8 (F) 4.4 21:56:51 10° SSW 22:00:21 79° SE 22:04:00 10° NE
Tiangong 2 1.0 21:59:15 10° W 22:02:25 65° S 22:04:08 24° ESE
Cosmos 1833 Rocket 2.8 22:01:29 10° S 22:06:55 53° ESE 22:12:23 10° NE
Cosmos 1626 Rocket 4.2 22:05:32 23° SE 22:07:28 36° E 22:11:27 10° NNE
Cosmos 1437 Rocket 4.2 22:10:21 10° NNW 22:13:49 32° W 22:17:17 10° SSW
SL-8 Rocket 4.0 22:08:06 10° N 22:14:23 80° E 22:18:59 20° SSE
COSMOS 2487 2.5 22:10:56 10° SSW 22:14:29 80° WNW 22:18:05 10° NNE
Terra 2.5 22:12:17 23° SE 22:14:49 41° ENE 22:19:17 10° N
Cosmos 1271 Rocket 4.2 22:12:52 10° NNE 22:16:09 25° ENE 22:17:24 21° ESE
Cosmos 1452 Rocket 3.5 22:11:19 10° NNW 22:16:38 84° ENE 22:19:50 24° SSE
Cosmos 2228 3.1 22:15:41 10° NNW 22:20:00 74° W 22:22:37 23° S
TELKOM 3 3.7 22:17:52 10° WNW 22:20:15 48° SSW 22:20:45 42° S
Cosmos 2366 rocket 4.0 22:14:34 10° N 22:20:44 66° E 22:24:34 24° SSE
SPOT 5 3.1 22:18:47 18° S 22:21:49 55° W 22:26:08 10° NNW
Cosmos 921 Rocket 3.9 22:17:32 10° NNW 22:21:50 45° WSW 22:24:47 18° SSW
NOSS 8 (H) 4.3 22:19:58 10° SW 22:23:20 90° S 22:27:00 10° NE
SPOT 1/Viking Rocket 3.6 22:20:35 21° S 22:24:04 79° WSW 22:29:14 10° NNW
Cosmos 1066 Rocket 4.1 22:20:34 16° S 22:25:00 79° E 22:30:40 10° NNE
Iridium 43 4.1 22:23:02 10° NNW 22:25:11 46° W 22:25:29 42° WSW
Cosmos 1544 4.0 22:34:24 10° N 22:37:43 33° ENE 22:38:17 31° E
Cosmos 1980 Rocket 2.4 22:32:37 10° NNW 22:38:15 63° ENE 22:41:05 29° SE
Cosmos 1953 3.8 22:35:06 10° NNE 22:38:26 24° ENE 22:39:20 22° E
Cosmos 1602 Rocket 3.4 22:40:40 31° S 22:42:41 83° E 22:47:02 10° N
ARGOS 4.2 22:39:41 15° SSW 22:43:49 39° W 22:48:54 10° NNW
ISS -1.5 22:42:11 10° WNW 22:45:03 27° NNW 22:47:55 10° NE
Cosmos 468 4.4 22:41:30 19° SSW 22:45:20 84° ESE 22:50:40 10° NNE
Cosmos 2322 Rocket 3.5 22:44:10 10° N 22:49:13 31° NE 22:52:24 19° ESE
Cosmos 1766 3.1 22:46:10 10° N 22:50:06 83° E 22:51:05 49° SSE
USA 229 DEB 3.8 22:44:23 10° NW 22:51:34 81° NE 22:55:39 29° SE
USA 229 3.8 22:44:29 10° NW 22:51:40 81° NE 22:55:46 29° SE
Meteor 1-21 4.3 22:49:12 31° S 22:51:59 67° E 22:57:43 10° NNE
deb Chang Zheng 4 3.5 22:48:52 10° NNE 22:53:10 64° ESE 22:54:23 43° SSE
Meteor 2-14 Rocket 4.4 22:49:33 10° N 22:55:40 87° W 22:58:46 31° S
CZ-3A R/B 3.0 22:55:51 10° W 22:55:52 10° W 22:55:52 10° W
Timation 2 Rocket 3.9 22:52:15 15° SSW 22:57:40 82° ESE 23:03:49 10° NNE
Lacrosse 5 rocket 3.1 22:56:56 10° NW 23:01:07 32° NNE 23:04:29 14° E
Cosmos 158 Rocket 3.9 23:02:36 30° SSW 23:05:19 82° ESE 23:10:44 10° NNE
Cosmos 1470 4.2 23:02:15 10° NNE 23:05:36 25° ENE 23:06:03 25° E
CARTOSAT-1 3.9 23:07:08 38° SSW 23:08:31 56° W 23:12:48 10° NNW
DELTA 2 DEB (DPAF) 4.2 23:08:27 46° SE 23:09:36 65° ENE 23:14:03 10° N
CZ-2C R/B 4.2 23:06:50 10° NE 23:10:57 21° E 23:11:39 20° E
H-2A R/B 3.3 23:09:14 19° SW 23:11:57 32° W 23:16:28 10° NNW
CZ-4B R/B 3.5 23:09:13 10° NNE 23:14:19 71° ESE 23:16:02 42° S
Cosmos 2082 Rocket 3.3 23:10:22 10° SW 23:15:47 44° WNW 23:21:12 10° NNE
CZ-4 R/B 3.9 23:13:15 10° NNE 23:18:19 89° WNW 23:20:15 39° SSW
Cosmos 1805 3.1 23:16:27 10° N 23:20:21 81° W 23:20:47 69° SSW
Cosmos 1758 3.1 23:16:49 10° N 23:20:49 79° E 23:21:12 69° SE
IGS 5A 4.5 23:25:25 32° SW 23:26:27 37° W 23:30:21 10° NNW
Nadezhda 3 Rocket 4.0 23:27:58 34° SSW 23:31:01 83° W 23:37:24 10° N
Cosmos 1758 Rocket 3.5 23:30:38 62° SE 23:31:01 66° E 23:35:21 10° NNE
Cosmos 1697 Rocket 4.0 23:28:25 10° NW 23:33:12 29° WSW 23:35:16 23° SW
H-2A R/B 3.3 23:32:00 28° SW 23:33:20 34° W 23:37:29 10° NNW
ATLAS CENTAUR R/B 1.6 23:30:48 10° NNW 23:34:23 49° NE 23:34:34 48° ENE
Cosmos 2239 Rocket 4.4 23:28:53 10° N 23:35:05 82° E 23:37:17 43° SSE
Tiangong 2 3.8 23:35:58 10° W 23:36:20 12° W 23:36:20 12° W
SL-16 R/B 2.2 23:36:09 10° NNW 23:41:51 72° ENE 23:43:34 45° SE
Cosmos 1821 Rocket 4.0 23:38:03 10° N 23:44:22 87° W 23:46:37 44° S
CZ-4C R/B 3.7 23:48:47 46° W 23:48:47 46° W 23:52:07 10° NNW
Cosmos 389 Rocket 3.1 23:45:14 10° NNW 23:48:14 49° WNW 23:48:14 49° WNW
Cosmos 972 Rocket 3.8 23:45:40 10° NNW 23:50:53 84° WSW 23:51:48 60° S
Cosmos 1331 Rocket 3.9 23:46:09 10° NNW 23:51:21 81° WSW 23:52:20 59° S
Cosmos 1271 Rocket 4.4 23:48:54 10° NW 23:52:06 24° W 23:52:36 24° WSW
Terra 3.5 23:51:10 20° WSW 23:52:42 23° W 23:56:29 10° NW
Cosmos 1110 Rocket 4.0 23:49:01 10° NNW 23:54:14 68° WSW 23:55:14 54° SSW
